Location: Pedimozza
(42.0500°N, 9.3500°E)
Time: 12:52:52
(UTC+00:00)

Cosmos 1378 Rocket - Pass Details

Date: 19 August 2019
Orbit: 602 x 626 km, 82.5° (Epoch: 21 September)

Event Time Altitude Azimuth Distance (km) Brightness Sun altitude
Rises 20:51:29 0° 347° (NNW) 2,897 8.0 -24.8°
Reaches altitude 10° 20:53:45 10° 342° (NNW) 1,991 7.0 -25.0°
Maximum altitude 20:58:02 53° 266° (W) 769 4.1 -25.6°
Enters shadow 20:58:20 52° 250° (WSW) 779 4.1 -25.6°
